Location: Harbor Side
(32.6101°N, 117.0814°W)
Time: 08:07:29
(UTC+00:00)

Cosmos 1707 - Pass Details

Date: 21 April 2021
Orbit: 514 x 530 km, 82.5° (Epoch: 13 May)

Event Time Altitude Azimuth Distance (km) Brightness Sun altitude
Exits shadow 12:25:40 - 215° (SW) 1,824 5.0 -10.0°
Reaches altitude 10° 12:25:51 10° 216° (SW) 1,758 4.9 -10.0°
Maximum altitude 12:29:18 31° 280° (W) 929 3.5 -9.3°
Drops below altitude 10° 12:32:47 10° 344° (NNW) 1,760 5.5 -8.6°
Sets 12:35:05 0° 355° (N) 2,649 6.5 -8.2°
